SCP
0 0 0 0 0 0 0 0 0 0 0 0 0 0 0 0 0 0 0 0 0 0 0 0 0 0 0 0 0 0 0 0 0 0 0 0 0 0 0 0 0 0 0
0 0 0 0 0 0 0 0 0 0 0 0 0 0 0 0 0 0 0 0 0 0 0 0 0 0 0 0 0 0 0 0 0 0 0 0 0 0 0 0 0 0 0
0 0 0 0 0 0 0 0 0 0 0 0 0 0 0 0 0 0 0 0 0 0 0 0 0 0 0 0 0 0 0 0 0 0 0 0 0 0 0 0 0 0 0
0 0 0 0 0 0 0 0 0 0 0 0 0 0 0 0 0 0 0 0 0 0 0 0 0 0 0 0 0 0 0 0 0 0 0 0 0 0 0 0 0 0 0
0 0 0 0 0 0 0 0 0 0 0 0 0 0 0 0 0 0 0 0 0 0 0 0 0 0 0 0 0 0 0 0 0 0 0 0 0 0 0 0 0 0 0
0 0 0 0 0 0 0 0 0 0 0 0 0 0 0 0 0 0 0 0 0 0 0 0 0 0 0 0 0 0 0 0 0 0 0 0 0 0 0 0 0 0 0
0 0 0 0 0 0 0 0 0 0 0 0 0 0 0 0 0 0 0 0 0 0 0 0 0 0 0 0 0 0 0 0 0 0 0 0 0 0 0 0 0 0 0
0 0 0 0 0 0 0 0 0 0 0 0 0 0 0 0 0 0 0 0 0 0 0 0 0 0 0 0 0 0 0 0 0 0 0 0 0 0 0 0 0 0 0
0 0 0 0 0 0 0 0 0 0 0 0 0 0 0 0 0 0 0 0 0 0 0 0 0 0 0 0 0 0 0 0 0 0 0 0 0 0 0 0 0 0 0
0 0 0 0 0 0 0 0 0 0 0 0 0 0 0 0 0 0 0 0 0 0 0 0 0 0 0 0 0 0 0 0 0 0 0 0 0 0 0 0 0 0 0
0 0 0 0 0 0 0 0 0 0 0 0 0 0 0 0 0 0 0 0 0 0 0 0 0 0 0 0 0 0 0 0 0 0 0 0 0 0 0 0 0 0 0
0 0 0 0 0 0 0 0 0 0 0 0 0 0 0 0 0 0 0 0 0 0 0 0 0 0 0 0 0 0 0 0 0 0 0 0 0 0 0 0 0 0 0
0 0 0 0 0 0 0 0 0 0 0 0 0 0 0 0 0 0 0 0 0 0 0 0 0 0 0 0 0 0 0 0 0 0 0 0 0 0 0 0 0 0 0
0 0 0 0 0 0 0 0 0 0 0 0 0 0 0 0 0 0 0 0 0 0 0 0 0 0 0 0 0 0 0 0 0 0 0 0 0 0 0 0 0 0 0
0 0 0 0 0 0 0 0 0 0 0 0 0 0 0 0 0 0 0 0 0 0 0 0 0 0 0 0 0 0 0 0 0 0 0 0 0 0 0 0 0 0 0
0 0 0 0 0 0 0 0 0 0 0 0 0 0 0 0 0 0 0 0 0 0 0 0 0 0 0 0 0 0 0 0 0 0 0 0 0 0 0 0 -0 0 0
0 0 0 0 0 0 0 0 0 0 0 0 0 0 0 0 0 0 0 0 0 0 0 0 0 0 0 0 0 0 0 0 0 0 0 0 0 0 0 0 0 0 0
0 0 0 0 0 0 0 0 0 0 0 0 0 0 0 0 0 0 0 0 0 0 0 0 0 0 0 0 0 0 0 0 0 0 0 0 0 0 0 0 0 0 0
0 0 0 0 0 0 0 0 0 0 0 0 0 0 0 0 0 0 0 0 0 0 0 0 0 0 0 0 0 0 0 0 0 0 0 0 0 0 0 0 0 0 0
0 0 0 0 0 0 0 0 0 0 0 0 0 0 0 0 0 0 0 0 0 0 0 0 0 0 0 0 0 0 0 0 0 0 0 0 0 0 0 0 0 0 0
0 0 0 0 0 0 0 0 0 0 0 0 0 0 0 0 0 0 0 0 0 0 0 -0 -0 0 0 0 0 0 0 0 0 0 0 0 0 0 0 0 0 0 0
0 0 0 0 0 0 -0 -0 -0 0 0 0 0 0 0 0 0 0 0 0 0 0 -0 -0 -0 0 0 0 0 0 0 0 0 0 0 0 0 0 0 0 0 0 0
0 0 0 0 0 0 -0 -0 0 0 0 0 0 0 0 0 0 0 0 0 0 -0 -0 -0 -0 0 0 0 0 0 0 0 0 0 0 0 0 0 0 0 0 0 0
0 0 0 0 0 0 0 0 0 0 0 0 0 0 0 0 0 0 0 0 -0 -0 0 -0 -0 0 0 0 0 0 0 0 0 0 0 0 0 0 0 0 0 0 0
0 0 0 0 0 0 0 0 0 0 0 0 0 0 0 0 0 0 0 0 0 0 0 0 -0 0 0 0 0 0 0 0 0 0 0 0 0 0 0 0 0 0 0
0 0 0 0 0 0 0 0 0 0 0 0 0 0 0 0 0 0 0 0 0 0 0 0 0 0 0 0 0 0 0 0 0 0 0 0 0 0 0 0 0 0 0
Wind_Speed
3 2 2 2 3 2 2 3 3 4 4 4 3 4 4 3 3 4 4 7 7 6 6 6 6 7 7 7 8 7 7 7 7 6 5 4 3 3 3 3 4 7 8
3 3 3 3 3 3 3 3 4 3 2 2 3 4 4 4 3 4 4 4 6 6 5 6 6 7 7 7 7 7 7 6 6 6 5 4 4 3 2 2 5 8 10
4 4 3 3 3 4 4 4 5 4 3 3 3 3 3 4 3 4 3 3 3 4 5 6 7 7 7 7 7 7 7 6 6 6 6 5 5 4 3 4 7 10 10
5 4 3 3 4 4 4 3 4 4 4 3 3 3 3 3 4 3 2 3 3 3 4 5 6 7 7 7 7 7 7 6 6 6 7 7 6 6 5 7 9 10 9
6 4 3 4 5 4 4 5 4 3 3 3 1 2 3 3 3 4 4 4 3 3 3 4 6 7 7 7 7 8 7 7 7 7 7 7 7 7 7 8 8 9 9
6 4 3 5 5 4 4 4 5 4 3 3 3 3 3 3 3 4 4 4 4 4 3 4 3 4 8 9 9 9 9 8 8 7 7 7 7 7 7 8 8 8 8
5 4 4 4 4 4 4 5 4 5 4 3 3 3 3 4 4 4 4 4 4 4 4 4 3 3 4 9 11 11 11 11 10 8 7 8 7 7 6 7 7 7 7
6 5 5 3 4 4 5 5 4 4 3 4 3 2 3 4 4 4 4 4 4 4 4 6 5 5 4 3 7 12 11 11 10 10 9 8 7 6 6 6 6 6 6
5 5 5 4 4 4 4 5 5 5 4 4 4 3 2 1 2 3 4 4 4 4 4 4 6 6 6 5 5 9 11 10 10 10 9 8 8 6 5 4 4 4 4
4 4 4 5 5 4 4 5 5 4 4 4 3 4 3 1 1 2 3 4 4 5 5 5 6 6 6 4 6 9 11 10 10 11 10 9 8 7 6 4 3 2 2
3 4 4 5 5 4 4 5 5 5 4 4 3 3 4 4 4 2 2 3 3 3 4 4 4 4 5 5 4 7 9 9 10 10 10 9 8 7 6 5 4 2 1
2 3 3 4 4 4 4 4 4 4 4 5 4 4 4 3 3 3 2 2 2 2 3 3 4 3 4 4 6 8 7 8 8 9 9 9 8 7 6 5 4 3 2
2 2 3 3 3 4 4 4 4 4 4 5 4 4 4 3 3 3 2 2 2 1 2 3 3 3 4 3 4 7 6 6 6 7 7 8 7 6 6 5 4 3 3
2 2 3 4 4 4 4 4 4 4 5 5 5 4 3 4 4 3 2 2 2 2 3 3 3 4 3 3 4 5 4 6 5 5 5 5 6 5 5 5 4 3 3
2 3 2 3 3 4 4 4 3 4 5 5 5 5 4 3 4 4 3 3 2 2 3 3 3 3 3 2 4 4 3 4 5 5 5 5 4 4 4 4 4 4 4
3 2 2 3 3 3 3 4 3 3 3 3 3 4 4 3 3 4 3 3 3 2 1 2 2 3 4 5 6 5 4 5 5 5 5 5 4 4 4 4 4 4 4
2 2 2 3 3 3 3 3 3 4 4 4 4 4 4 4 3 4 3 3 3 3 2 2 2 3 5 5 5 4 4 3 3 5 5 5 5 5 5 5 5 5 5
2 2 3 4 4 4 4 3 3 4 4 4 4 4 4 4 4 4 3 4 3 3 3 3 3 3 4 4 4 5 5 5 4 6 6 6 6 6 7 7 7 7 6
2 3 4 4 4 4 4 3 3 3 3 4 4 5 5 5 5 4 4 4 3 4 3 2 3 3 3 4 4 5 6 4 6 6 6 7 7 8 8 8 8 8 7
2 3 3 4 4 5 5 5 4 3 3 3 4 4 4 5 5 5 4 4 4 4 4 3 3 3 3 3 3 3 4 4 5 6 6 7 7 8 9 9 8 8 7
3 3 3 4 4 4 5 5 4 4 3 3 2 3 4 5 6 4 3 3 4 3 3 3 3 3 3 4 3 3 4 4 5 4 4 5 5 4 5 7 8 8 8
3 3 3 4 4 4 6 8 6 4 3 3 3 2 3 4 4 4 5 4 3 3 2 2 2 3 4 4 3 4 4 4 4 4 4 5 4 5 4 4 7 9 9
3 3 2 3 3 3 5 6 7 4 3 2 3 3 3 4 4 3 5 5 4 4 4 2 2 3 4 4 4 4 4 4 5 5 4 5 4 5 5 6 10 11 10
3 2 2 2 3 3 3 3 5 3 2 1 2 2 2 2 4 4 4 4 4 3 4 2 2 4 4 4 4 4 4 5 5 4 4 4 4 4 6 5 9 10 11
3 2 2 2 2 2 2 2 2 2 1 1 1 2 2 3 5 6 4 4 4 5 6 7 7 7 9 9 7 3 3 3 5 4 3 3 4 6 5 5 6 10 11
3 2 2 2 2 2 3 2 1 1 2 1 1 2 3 3 3 4 2 3 4 5 6 7 7 7 6 7 7 3 2 3 4 4 3 3 4 5 5 4 4 6 7
Wind_Direction
15 1 48 11 8 4 359 352 11 20 21 20 15 31 28 45 73 91 101 99 91 78 67 59 57 55 51 50 46 42 36 31 27 32 46 59 76 93 117 137 152 146 135
30 9 32 18 7 4 7 9 19 17 19 34 26 36 34 29 61 100 115 110 99 88 72 65 63 62 56 50 44 42 41 36 35 40 56 57 58 64 101 141 152 152 143
40 25 19 13 8 7 9 18 17 11 22 34 36 41 48 25 37 80 107 122 114 94 81 74 69 66 64 57 49 42 37 47 55 55 59 54 55 54 69 113 137 137 136
52 35 15 10 17 14 9 21 24 12 17 23 27 32 51 38 32 49 79 92 104 111 96 84 73 70 70 63 55 47 45 59 64 65 60 55 60 63 71 100 122 128 129
33 40 18 16 22 20 13 22 24 13 10 12 31 56 50 50 30 41 55 68 74 88 105 95 80 68 67 59 53 46 49 68 72 71 68 65 67 75 79 90 112 122 125
23 27 23 33 29 25 13 21 16 10 4 5 31 50 54 53 45 41 45 57 59 65 74 86 84 72 66 53 43 41 51 65 71 72 71 73 73 78 88 95 107 117 121
21 26 25 32 37 37 22 23 14 8 9 7 29 26 37 50 48 52 46 52 51 48 55 62 63 67 61 52 41 43 52 59 61 65 69 74 74 75 82 96 105 117 123
20 28 30 28 37 36 25 27 21 14 7 20 32 38 23 16 12 38 44 50 44 40 45 54 51 58 63 56 43 44 47 49 52 56 59 67 71 72 76 87 103 115 118
34 21 20 27 38 46 31 29 24 27 15 12 33 51 64 26 342 4 30 44 34 36 41 51 50 50 61 55 46 39 42 44 48 49 50 57 62 67 77 87 99 113 123
49 22 21 30 43 43 37 32 30 18 29 18 14 26 47 82 68 13 5 25 34 40 40 49 47 44 53 59 55 43 41 40 41 43 43 47 50 52 56 68 79 89 126
55 33 32 34 41 42 42 41 33 29 28 25 26 19 15 19 34 67 24 5 17 27 44 52 52 46 45 52 56 40 42 41 37 35 36 39 41 43 47 49 53 49 25
55 42 44 41 42 42 38 32 42 44 36 30 29 31 34 33 16 29 35 21 24 13 37 44 46 46 47 50 47 37 43 46 37 33 31 32 33 33 34 36 35 33 7
71 52 50 46 45 46 40 28 31 40 44 46 42 29 27 29 27 27 31 9 17 1 34 38 37 41 44 46 39 27 37 42 33 32 33 28 23 19 16 16 19 10 352
89 84 65 64 52 44 43 40 29 34 38 36 44 39 34 22 23 32 31 22 17 11 28 27 25 32 33 38 24 25 29 30 23 22 27 22 13 7 3 357 352 341 327
78 77 85 86 76 56 42 42 39 42 42 33 35 32 34 25 21 23 24 35 51 26 2 11 14 11 19 32 21 15 17 17 16 16 12 6 3 358 348 342 338 329 318
60 63 74 87 83 75 61 54 41 38 52 49 55 47 34 25 22 21 18 22 35 53 18 355 6 10 16 19 20 11 2 10 8 357 353 349 347 340 333 327 317 307 300
73 65 61 65 69 75 74 66 46 44 37 33 43 60 49 34 26 21 18 26 24 33 31 346 3 11 18 12 0 354 359 359 349 354 347 338 334 330 322 314 308 298 289
69 64 67 63 61 56 60 68 58 57 51 41 35 43 42 41 32 21 23 24 18 23 36 357 343 359 6 0 -0 358 359 358 346 345 347 346 343 332 319 310 304 296 286
79 62 68 68 63 55 52 48 53 61 62 57 49 45 38 39 29 20 25 23 13 13 12 4 342 347 349 355 2 354 355 348 345 347 347 347 339 331 322 313 307 300 290
87 75 72 72 66 55 46 32 29 41 52 60 63 61 51 50 35 18 24 17 15 10 1 2 348 340 339 338 4 354 347 343 336 341 352 341 328 323 319 316 308 301 296
86 81 77 72 69 66 47 34 17 22 35 40 55 80 79 70 54 35 23 11 13 7 358 359 347 342 340 350 350 340 341 327 321 333 338 328 323 316 310 303 302 300 295
77 70 72 75 68 61 56 44 26 6 9 20 22 47 84 71 49 15 358 0 4 3 352 345 335 335 331 336 337 340 334 335 320 318 330 316 320 312 304 300 308 306 298
98 88 86 89 89 78 67 40 18 360 354 13 18 21 34 52 45 21 348 337 328 322 319 310 323 313 316 322 330 328 320 312 297 293 314 304 309 310 310 322 322 314 302
126 125 117 117 114 109 83 42 7 344 333 3 20 33 52 49 40 29 4 356 340 330 316 313 290 292 301 302 301 296 292 302 300 304 317 305 309 309 315 314 310 312 314
141 148 154 150 138 140 135 87 13 325 318 328 0 38 57 69 44 34 16 345 332 323 322 324 311 304 304 305 304 315 319 320 311 305 314 312 312 312 305 302 307 313 316
152 159 164 171 162 148 152 129 39 319 321 327 9 53 62 72 44 30 11 336 320 311 322 324 318 313 306 300 302 283 272 296 303 301 309 318 309 320 308 294 309 318 312